Weatherford, OK

6:52 PM CST on November 20, 2019 (GMT -0600)
Weatherford

Weather History for KOJA - October, 2019

Change the Weather History Date:

Sunday, October 20, 2019

  Actual Average (WUND) Record (WUND)
Temperature  
Mean Temperature 63 °F -  
Max Temperature 82 °F - - (-1)
Min Temperature 44 °F - - (-1)
Degree Days  
Heating Degree Days 2    
Growing Degree Days 13 (Base 50)    
Moisture  
Dew Point 44 °F    
Average Humidity 57    
Maximum Humidity 93    
Minimum Humidity 28    
Precipitation  
Precipitation 0.00 in - - ()
Sea Level Pressure  
Sea Level Pressure 29.71 in    
Wind  
Wind Speed 7 mph (SSW)    
Max Wind Speed 23 mph    
Max Gust Speed 33 mph    
Visibility 4 miles    
Events Fog    
Averages and records for this station are not official NWS values.
T = Trace of Precipitation, MM = Missing Value Source: NWS Daily Summary

Daily Weather History Graph

Daily Weather History Graph

Search for Another Location

Airport or City:

Astronomy

Oct. 20, 2019 Rise Set
Actual Time 7:45 AM CDT 6:53 PM CDT
Civil Twilight 7:19 AM CDT 7:18 PM CDT
Nautical Twilight 6:49 AM CDT 7:48 PM CDT
Astronomical Twilight 6:20 AM CDT 8:18 PM CDT
Moon No Moon Rise 2:06 PM CDT (10/20)
Length of Visible Light 11h 59m
Length of Day
11h 07m
Waning Gibbous, 59% of the Moon is Illuminated
Oct 20
Waning Gibbous
Oct 21
Last Quarter
Oct 27
New
Nov 4
First Quarter
Nov 12
Full

Hourly Weather History & Observations

Time (CDT) Temp. Windchill Dew Point Humidity Pressure Visibility Wind Dir Wind Speed Gust Speed Precip Events Conditions
12:15 AM 50.0 °F - 41.0 °F 71% 29.85 in 0.2 mi SE 3.5 mph - N/A   Haze
12:35 AM 50.0 °F - 42.8 °F 76% 29.84 in 1.0 mi Calm Calm - N/A   Haze
12:55 AM 50.0 °F - 42.8 °F 76% 29.84 in 0.8 mi Calm Calm - N/A   Haze
1:15 AM 50.0 °F - 42.8 °F 76% 29.83 in 0.5 mi SE 3.5 mph - N/A   Haze
1:35 AM 46.4 °F 45.2 °F 42.8 °F 87% 29.82 in 0.2 mi SE 3.5 mph - N/A   Haze
1:55 AM 46.4 °F - 42.8 °F 87% 29.83 in 10.0 mi Calm Calm - N/A   Clear
2:15 AM 48.2 °F - 42.8 °F 82% 29.83 in 7.0 mi Calm Calm - N/A   Clear
2:35 AM 48.2 °F - 42.8 °F 82% 29.82 in 10.0 mi Calm Calm - N/A   Clear
2:55 AM 48.2 °F - 42.8 °F 82% 29.81 in 2.5 mi SSE 3.5 mph - N/A   Haze
3:15 AM 46.4 °F - 42.8 °F 87% 29.82 in 4.0 mi Calm Calm - N/A   Haze
3:35 AM 48.2 °F - 42.8 °F 82% 29.80 in 0.2 mi SSE 3.5 mph - N/A   Haze
3:55 AM 51.8 °F - 42.8 °F 71% 29.79 in 3.0 mi SSE 3.5 mph - N/A   Haze
4:15 AM 46.4 °F - 42.8 °F 87% 29.78 in 5.0 mi Calm Calm - N/A   Haze
4:35 AM 48.2 °F - 42.8 °F 82% 29.78 in 7.0 mi Calm Calm - N/A   Clear
4:55 AM 50.0 °F - 44.6 °F 82% 29.78 in 4.0 mi SSE 3.5 mph - N/A   Haze
5:15 AM 50.0 °F - 44.6 °F 82% 29.78 in 10.0 mi Calm Calm - N/A   Clear
5:35 AM 46.4 °F 44.3 °F 42.8 °F 87% 29.78 in 2.5 mi SE 4.6 mph - N/A   Clear
5:55 AM 48.2 °F - 44.6 °F 87% 29.78 in 0.5 mi Calm Calm - N/A Fog Fog
6:15 AM 44.6 °F - 42.8 °F 93% 29.78 in 10.0 mi Calm Calm - N/A   Clear
6:35 AM 51.8 °F - 44.6 °F 76% 29.78 in 7.0 mi SSE 4.6 mph - N/A   Clear
6:55 AM 50.0 °F - 44.6 °F 82% 29.78 in 7.0 mi South 3.5 mph - N/A   Clear
7:15 AM 51.8 °F - 46.4 °F 82% 29.78 in 5.0 mi South 5.8 mph - N/A   Haze
7:35 AM 51.8 °F - 46.4 °F 82% 29.78 in 7.0 mi South 5.8 mph - N/A   Clear
7:55 AM 51.8 °F - 46.4 °F 82% 29.77 in 5.0 mi SSE 6.9 mph - N/A   Haze
8:15 AM 51.8 °F - 46.4 °F 82% 29.77 in 5.0 mi South 8.1 mph - N/A   Haze
8:35 AM 53.6 °F - 46.4 °F 77% 29.77 in 0.5 mi South 8.1 mph - N/A   Haze
8:55 AM 53.6 °F - 48.2 °F 82% 29.78 in 0.2 mi SSE 6.9 mph - N/A   Haze
9:15 AM 57.2 °F - 50.0 °F 77% 29.78 in 0.2 mi SSE 10.4 mph - N/A   Haze
9:35 AM 59.0 °F - 51.8 °F 77% 29.78 in 0.2 mi South 17.3 mph 23.0 mph N/A   Haze
9:55 AM 60.8 °F - 51.8 °F 72% 29.78 in 0.2 mi South 15.0 mph 23.0 mph N/A   Haze
10:15 AM 60.8 °F - 51.8 °F 72% 29.77 in 0.2 mi South 18.4 mph 25.3 mph N/A   Haze
10:35 AM 60.8 °F - 51.8 °F 72% 29.76 in 0.2 mi South 17.3 mph 21.9 mph N/A   Haze
10:55 AM 64.4 °F - 51.8 °F 64% 29.75 in 0.2 mi South 19.6 mph 27.6 mph N/A   Haze
11:15 AM 66.2 °F - 53.6 °F 64% 29.75 in 0.2 mi South 17.3 mph 25.3 mph N/A   Haze
11:35 AM 68.0 °F - 51.8 °F 56% 29.74 in 0.2 mi South 15.0 mph 25.3 mph N/A   Haze
11:55 AM 71.6 °F - 51.8 °F 50% 29.73 in 0.5 mi South 21.9 mph 28.8 mph N/A   Haze
12:15 PM 71.6 °F - 50.0 °F 46% 29.72 in 0.5 mi South 21.9 mph 28.8 mph N/A   Haze
12:35 PM 73.4 °F - 50.0 °F 44% 29.71 in 0.8 mi South 12.7 mph 25.3 mph N/A   Haze
12:55 PM 73.4 °F - 50.0 °F 44% 29.69 in 0.8 mi South 20.7 mph 28.8 mph N/A   Haze
1:15 PM 75.2 °F - 50.0 °F 41% 29.67 in 1.0 mi SSW 19.6 mph 29.9 mph N/A   Haze
1:55 PM 77.0 °F - 50.0 °F 39% 29.65 in 1.2 mi South 23.0 mph 31.1 mph N/A   Haze
2:15 PM 78.8 °F - 50.0 °F 36% 29.62 in 1.2 mi South 20.7 mph 33.4 mph N/A   Haze
2:35 PM 77.0 °F - 48.2 °F 36% 29.61 in 1.0 mi SSW 15.0 mph 28.8 mph N/A   Haze
2:55 PM 78.8 °F - 50.0 °F 36% 29.61 in 2.0 mi SSW 13.8 mph 28.8 mph N/A   Haze
3:15 PM 78.8 °F - 50.0 °F 36% 29.60 in 3.0 mi SSW 17.3 mph 23.0 mph N/A   Haze
3:35 PM 82.4 °F - 50.0 °F 32% 29.59 in 3.0 mi SSW 12.7 mph 25.3 mph N/A   Haze
3:55 PM 82.4 °F - 50.0 °F 32% 29.58 in 3.0 mi SSW 17.3 mph 24.2 mph N/A   Haze
4:15 PM 82.4 °F - 50.0 °F 32% 29.58 in 3.0 mi SSW 11.5 mph 25.3 mph N/A   Haze
4:35 PM 82.4 °F - 46.4 °F 28% 29.58 in 10.0 mi SW 15.0 mph 24.2 mph N/A   Clear
4:55 PM 80.6 °F - 46.4 °F 30% 29.57 in 5.0 mi SSW 12.7 mph - N/A   Haze
5:15 PM 80.6 °F - 46.4 °F 30% 29.57 in 5.0 mi SSW 9.2 mph 16.1 mph N/A   Haze
5:35 PM 80.6 °F - 46.4 °F 30% 29.57 in 7.0 mi SSW 6.9 mph - N/A   Clear
5:55 PM 80.6 °F - 46.4 °F 30% 29.56 in 3.0 mi SSW 5.8 mph - N/A   Haze
6:15 PM 78.8 °F - 46.4 °F 32% 29.56 in 3.0 mi SSW 4.6 mph - N/A   Haze
6:35 PM 77.0 °F - 46.4 °F 34% 29.56 in 7.0 mi SW 3.5 mph - N/A   Clear
6:55 PM 77.0 °F - 46.4 °F 34% 29.56 in 0.5 mi SSW 4.6 mph - N/A   Haze
7:15 PM 75.2 °F - 46.4 °F 36% 29.56 in 7.0 mi SSW 3.5 mph - N/A   Clear
7:35 PM 73.4 °F - 46.4 °F 38% 29.55 in 0.2 mi South 4.6 mph - N/A   Haze
7:55 PM 71.6 °F - 48.2 °F 43% 29.56 in 10.0 mi WNW 8.1 mph - N/A   Clear
8:15 PM 68.0 °F - 35.6 °F 30% 29.59 in 10.0 mi NNW 19.6 mph 32.2 mph N/A   Clear
8:35 PM 66.2 °F - 37.4 °F 35% 29.60 in 10.0 mi NNW 19.6 mph 27.6 mph N/A   Clear
8:55 PM 64.4 °F - 37.4 °F 37% 29.63 in 10.0 mi NNW 18.4 mph 27.6 mph N/A   Clear
9:15 PM 62.6 °F - 35.6 °F 37% 29.67 in 10.0 mi NNW 21.9 mph 29.9 mph N/A   Clear
9:35 PM 62.6 °F - 32.0 °F 32% 29.66 in 10.0 mi NNW 16.1 mph 23.0 mph N/A   Clear
9:55 PM 62.6 °F - 30.2 °F 30% 29.67 in 10.0 mi North 15.0 mph 19.6 mph N/A   Clear
10:15 PM 62.6 °F - 30.2 °F 30% 29.68 in 10.0 mi North 16.1 mph - N/A   Clear
10:35 PM 60.8 °F - 28.4 °F 29% 29.69 in 10.0 mi NNW 11.5 mph 17.3 mph N/A   Scattered Clouds
10:55 PM 60.8 °F - 28.4 °F 29% 29.69 in 10.0 mi NNW 12.7 mph - N/A   Scattered Clouds
11:15 PM 59.0 °F - 28.4 °F 31% 29.69 in 10.0 mi NW 9.2 mph - N/A   Clear
11:35 PM 57.2 °F - 28.4 °F 33% 29.69 in 10.0 mi NNW 5.8 mph - N/A   Clear
11:55 PM 55.4 °F - 28.4 °F 36% 29.69 in 10.0 mi NW 6.9 mph - N/A   Clear